EHI
6 9 17 19 10 2 0 0 0 0 0 0 0 0 0 0 0 0 0 0 1 2 2 4 8 8 7 10 16 19 16 11 6 3 1 0 0 0 0 0 0 0 0 0 0 0 0 0 0
4 6 11 12 6 1 0 0 0 1 1 1 0 0 0 0 0 0 0 0 1 2 3 6 10 10 8 10 13 14 12 8 4 2 1 0 0 0 0 0 0 0 0 0 0 0 0 0 0
1 2 4 3 1 0 0 0 0 1 2 2 1 0 0 0 0 1 1 1 1 3 7 11 14 12 11 12 11 8 6 4 2 1 0 0 0 0 0 0 0 0 0 0 0 0 0 0 0
1 1 1 0 0 0 0 0 0 2 3 2 1 0 1 1 1 3 4 3 3 7 11 16 16 13 13 13 11 7 3 2 1 0 0 0 0 0 0 0 0 0 0 0 0 0 0 0 0
2 1 0 0 0 0 0 0 1 2 3 2 1 1 2 3 4 6 7 5 7 11 15 19 18 14 12 11 8 5 2 1 0 0 0 0 0 0 0 0 0 0 0 0 0 0 0 0 0
2 1 0 0 0 0 0 1 1 2 2 1 0 3 7 9 9 10 9 7 7 11 16 20 19 15 11 8 5 3 1 0 0 0 0 0 0 0 0 0 0 0 0 0 0 0 0 0 0
1 0 0 0 0 0 1 2 2 2 1 0 0 4 16 23 20 17 15 11 8 10 15 18 17 14 10 6 4 2 1 0 0 0 0 0 0 0 0 0 0 0 0 0 0 0 0 0 0
0 0 0 0 0 0 1 2 1 1 0 0 0 5 24 40 37 29 24 18 14 13 14 14 14 12 9 6 4 2 1 0 0 0 0 0 0 0 0 0 0 0 0 0 0 0 0 0 0
0 0 0 0 0 0 1 1 1 0 0 2 5 14 36 56 54 44 35 27 22 19 17 16 14 12 8 5 3 2 0 0 0 0 0 0 0 0 0 0 0 0 0 0 0 0 0 0 0
0 0 0 0 0 0 1 1 0 0 0 5 18 37 57 67 63 52 43 36 31 26 22 19 16 13 8 5 3 2 0 0 0 0 0 0 0 0 0 0 0 0 0 0 0 0 0 0 0
0 0 0 0 0 0 0 0 0 0 1 7 28 56 72 72 62 50 43 40 37 31 26 23 21 16 10 5 3 1 0 0 0 0 0 0 0 0 0 0 0 0 0 0 0 0 0 0 0
0 0 0 0 0 0 0 0 0 1 1 9 32 61 73 68 57 45 39 38 37 35 30 26 24 19 14 8 4 1 0 0 1 1 0 0 0 0 0 0 0 0 0 0 0 0 0 0 0
0 0 0 0 0 0 0 1 2 3 3 13 36 59 67 61 50 40 37 36 37 38 35 30 27 23 19 13 6 3 1 1 1 1 0 0 0 0 0 0 0 0 0 0 0 0 0 0 0
0 0 0 0 0 0 0 1 4 6 6 16 38 55 59 54 44 38 36 36 38 40 39 34 30 28 24 15 8 5 3 2 1 1 0 0 0 0 0 0 0 0 0 0 0 0 0 0 0
0 0 0 0 0 0 0 2 6 9 10 18 33 46 51 50 44 39 37 36 38 41 42 37 31 30 26 17 10 8 5 2 1 0 0 0 0 0 0 0 0 0 0 0 0 0 0 0 0
0 0 0 0 0 0 0 2 5 8 11 17 28 38 45 47 44 40 36 35 38 43 45 40 32 30 28 19 12 9 6 3 1 0 0 0 0 0 0 0 0 0 0 0 0 0 0 0 0
0 0 0 0 0 0 0 1 2 4 7 15 26 34 41 45 44 40 36 36 42 46 48 44 36 31 28 20 13 8 4 2 1 0 1 1 0 0 0 0 0 0 0 0 0 0 0 0 0
0 0 0 0 0 0 0 1 2 2 5 13 23 33 40 43 44 43 40 40 46 51 52 48 41 36 31 23 15 8 3 1 0 1 1 1 0 0 1 1 0 0 0 0 0 0 0 0 0
0 0 0 0 0 0 0 1 3 3 5 9 18 29 36 38 41 46 47 45 49 53 54 52 48 44 39 29 19 11 5 2 2 2 2 1 0 0 2 2 1 0 0 0 0 0 0 0 0
0 0 0 0 0 0 0 1 3 3 3 5 11 20 27 32 40 48 51 50 52 56 56 54 52 50 45 35 22 13 6 4 4 4 3 1 1 1 2 3 2 1 1 1 1 1 1 1 0
0 0 0 0 0 0 0 1 2 2 2 3 6 11 19 29 39 46 50 52 56 58 56 52 51 49 45 37 26 16 9 6 6 6 5 4 3 3 3 3 3 4 3 2 2 2 3 2 1
0 0 0 0 0 0 0 1 2 2 2 3 3 7 14 24 35 43 48 51 55 57 53 48 47 46 42 37 30 21 13 9 7 7 8 7 5 4 3 3 4 5 4 4 3 3 4 4 3
0 0 0 0 0 0 0 0 1 2 2 3 3 5 11 20 30 41 49 51 52 51 48 47 45 43 39 34 29 21 14 10 8 8 9 8 6 4 4 4 5 6 5 5 4 3 4 7 7
0 0 0 0 0 0 0 0 0 1 1 1 3 5 10 20 31 42 50 52 49 46 46 45 43 40 35 30 23 16 11 10 11 10 9 7 6 6 5 5 6 6 6 6 6 5 6 9 10
0 0 0 0 0 0 0 0 0 0 0 1 3 7 13 24 37 47 51 50 46 44 43 42 41 38 33 26 19 14 11 11 11 10 8 6 6 7 6 6 7 7 6 7 7 7 8 9 10
0 0 0 0 0 0 0 0 0 0 0 1 3 8 17 29 43 52 52 47 44 42 41 39 38 36 30 24 19 15 13 11 10 7 6 6 6 7 7 7 7 7 6 7 7 7 7 8 8
0 0 0 0 0 0 0 0 0 0 1 2 5 12 21 30 43 52 52 45 40 38 36 34 32 32 27 22 18 14 13 12 9 7 5 5 7 7 7 6 6 6 6 7 7 6 7 9 10
0 0 0 0 0 0 0 0 0 1 2 3 7 15 24 30 39 49 50 43 36 33 31 28 26 24 21 17 14 11 11 11 10 8 6 5 6 6 5 4 4 5 5 5 5 6 7 11 13
0 0 0 0 0 0 0 0 0 1 2 3 7 16 25 30 37 47 48 41 36 32 29 26 22 19 15 13 12 10 9 9 9 8 6 4 4 5 4 3 3 3 3 3 3 4 6 8 11
0 0 0 0 0 0 0 0 0 0 1 3 7 16 25 30 40 48 47 40 36 33 30 26 22 18 14 12 12 11 9 8 7 7 5 4 4 4 4 3 3 2 1 2 3 4 5 6 7
Wind_Speed
8 7 5 5 4 7 14 12 10 9 8 7 6 4 6 8 7 10 11 16 17 16 16 15 13 13 13 13 14 14 14 14 13 13 12 12 11 11 11 10 10 10 11 11 11 11 11 12 12
4 4 6 6 3 10 13 10 10 10 8 7 6 5 6 9 9 11 13 15 17 17 16 15 15 14 14 13 13 13 13 13 13 12 12 11 11 11 10 10 10 10 11 11 11 11 11 11 11
5 6 6 0 9 11 12 9 9 8 6 4 5 6 7 8 8 10 14 18 17 16 15 16 15 14 14 13 13 13 13 13 12 12 11 11 11 10 10 10 10 10 11 11 11 11 11 11 11
5 6 5 3 12 11 8 7 5 5 6 5 5 8 8 6 6 11 17 17 16 15 15 17 15 14 14 13 13 12 12 12 11 11 11 11 10 10 10 10 10 10 10 11 11 11 11 11 11
6 5 2 8 11 8 6 5 3 4 5 5 4 8 9 6 9 16 17 16 16 15 15 17 15 14 13 13 13 12 12 11 11 10 10 10 10 10 10 10 10 10 11 11 11 11 11 11 11
5 4 4 9 10 6 5 3 3 4 6 5 5 8 8 8 12 16 16 14 14 14 15 16 15 13 13 13 12 12 12 11 10 10 10 10 10 10 10 10 10 10 10 11 10 11 11 10 10
4 2 6 7 8 7 6 3 3 3 5 5 4 7 9 10 13 14 14 13 12 13 13 14 15 13 13 12 11 11 11 10 10 10 10 10 10 10 10 10 10 10 10 10 10 10 10 10 10
5 2 5 7 6 8 6 3 4 3 6 6 3 5 9 14 14 13 12 11 11 11 11 12 12 12 12 12 11 11 10 10 9 10 9 10 10 10 9 10 9 10 10 10 10 10 10 10 9
6 2 6 7 6 6 4 2 4 3 6 5 3 4 12 19 17 15 13 12 11 10 9 11 11 11 10 10 12 11 10 9 9 9 9 8 7 9 8 10 9 9 9 9 9 9 9 9 9
5 2 8 6 6 5 3 2 2 4 5 6 8 10 17 18 17 16 15 15 15 13 12 9 10 10 9 8 8 7 7 8 6 6 7 5 5 4 7 10 8 9 9 9 8 8 9 7 7
3 4 5 4 5 5 3 1 1 3 3 4 9 15 18 18 16 15 15 15 14 13 12 11 10 9 9 6 6 5 4 5 5 6 5 4 5 5 6 6 7 7 8 7 8 8 5 4 4
3 3 4 5 5 4 4 1 1 1 3 4 8 16 19 18 17 15 14 13 13 13 12 11 10 8 7 6 5 5 5 4 4 6 6 5 3 3 4 3 5 5 4 4 4 3 4 4 4
3 3 5 5 4 3 2 1 0 1 3 6 11 16 17 17 15 13 12 12 12 13 13 12 10 9 8 6 5 5 4 5 5 4 4 4 4 4 4 3 2 3 4 5 4 4 4 4 4
4 5 5 3 2 0 1 2 2 3 6 9 12 14 15 15 15 13 13 12 12 12 12 12 12 10 9 7 5 4 5 4 4 5 5 5 4 3 3 4 3 3 3 3 3 4 4 3 3
5 6 4 0 1 0 3 3 3 4 7 9 11 11 13 13 13 13 13 12 12 12 12 12 11 10 10 9 7 5 5 5 5 4 5 5 5 5 4 4 4 4 4 4 3 4 4 4 4
6 8 5 2 1 1 7 1 5 5 7 8 9 10 11 11 12 11 12 11 11 11 12 12 10 11 10 8 7 5 5 5 4 5 5 6 5 5 4 4 4 4 4 4 4 4 3 3 3
8 6 2 2 1 3 6 2 3 3 6 7 8 9 10 11 11 11 12 12 11 12 12 12 11 11 10 8 6 5 4 5 4 5 5 6 6 6 5 4 3 5 4 4 4 4 3 3 3
3 4 3 1 1 4 5 2 1 3 5 6 7 9 10 11 11 11 11 11 11 11 12 12 11 10 9 7 6 5 5 5 5 5 5 6 6 7 6 5 5 6 4 4 3 3 3 2 3
3 4 3 1 2 5 4 3 2 3 6 7 7 8 9 10 10 10 10 10 10 11 12 12 12 11 9 7 7 6 6 6 5 5 6 7 7 7 6 5 6 5 5 5 5 4 5 4 3
6 6 4 2 1 5 5 4 2 3 5 5 7 8 9 9 10 10 11 12 12 12 12 12 13 12 11 8 6 5 4 5 5 5 5 7 7 7 7 7 6 6 5 6 5 5 4 4 4
8 7 3 2 3 4 6 6 4 4 4 5 6 7 8 10 11 11 11 12 11 12 12 11 12 12 12 10 6 5 4 4 5 6 6 7 7 8 7 7 7 5 6 6 6 6 6 4 4
7 3 4 4 7 2 4 5 3 3 4 5 6 7 8 9 10 11 11 11 11 11 11 11 11 11 11 10 9 9 8 7 7 6 6 6 7 8 8 8 7 6 6 5 7 7 5 5 5
2 1 3 5 6 7 5 7 0 3 4 4 5 5 7 8 10 10 11 10 10 10 10 10 10 10 10 10 10 9 8 7 6 6 6 7 7 8 8 8 7 7 7 7 7 5 7 5 6
4 5 5 7 8 8 3 7 2 1 1 1 3 5 6 8 9 9 9 9 9 9 9 9 9 9 10 10 10 10 10 8 8 7 6 6 6 6 9 9 7 7 7 7 7 7 8 6 5
9 9 7 8 7 4 2 6 3 3 2 2 2 5 7 8 9 10 10 10 10 10 10 9 9 9 9 9 9 10 10 9 9 8 7 7 6 6 8 8 8 7 7 7 7 7 7 7 7
12 12 8 6 5 3 6 6 1 3 1 1 2 6 8 9 9 10 10 10 9 10 10 10 9 9 9 9 8 8 9 8 6 8 7 7 6 6 6 7 8 8 8 8 7 6 7 6 7
10 12 10 8 6 7 3 2 3 4 3 3 4 7 8 9 9 9 9 9 9 10 9 9 9 8 8 8 7 7 7 7 7 6 7 6 6 6 7 7 7 7 7 7 6 6 7 6 7
8 8 6 9 7 8 6 6 3 3 3 4 6 7 8 9 9 9 9 9 9 9 8 8 8 8 8 7 7 6 7 7 7 6 6 6 6 6 7 7 7 7 7 7 7 6 6 7 6
10 10 9 8 8 7 5 2 3 1 2 4 5 7 8 10 10 9 9 9 9 9 9 8 7 7 7 7 6 6 6 6 6 6 6 6 6 6 7 7 7 7 7 7 6 7 6 7 6
12 12 12 9 8 8 8 1 6 2 2 3 4 6 7 9 9 9 10 9 9 9 8 8 7 7 7 6 6 6 5 6 6 6 6 6 6 6 6 6 6 7 7 7 7 7 6 6 7
Wind_Direction
209 211 228 241 223 76 65 63 62 66 71 73 77 59 56 41 32 79 117 138 136 139 138 144 138 134 130 127 125 125 126 128 128 129 128 128 128 125 123 121 117 114 111 110 110 110 111 111 113
214 215 235 243 55 72 69 59 62 63 78 101 93 84 77 67 61 106 133 138 143 141 143 143 137 136 132 129 127 126 128 129 129 129 129 128 126 125 125 123 121 117 114 113 112 111 112 112 114
222 240 266 288 60 59 65 62 72 88 97 99 91 64 57 75 103 125 135 145 145 140 139 133 142 138 134 131 128 128 128 128 129 129 128 126 125 124 124 123 122 119 117 116 115 112 113 113 113
237 228 234 72 72 62 56 63 76 98 99 79 94 90 80 75 113 129 139 149 144 142 143 135 145 140 137 134 132 130 129 128 128 126 125 125 123 122 121 122 122 121 119 117 114 114 113 114 114
246 259 133 81 71 68 60 59 69 67 80 87 93 98 92 84 114 132 146 149 145 146 142 137 145 142 139 137 135 133 132 130 127 123 121 121 120 119 118 120 120 121 120 118 116 116 116 117 116
252 250 71 72 74 72 73 75 83 69 88 100 108 107 92 114 133 142 147 150 148 148 142 135 144 144 142 140 138 136 134 131 129 127 124 121 119 116 115 118 120 120 120 120 120 120 118 119 119
299 18 68 67 73 72 55 50 41 66 93 97 108 110 117 136 140 145 146 148 148 149 144 146 150 149 145 141 139 137 135 131 129 128 126 123 120 118 117 118 119 121 121 123 124 121 120 120 120
303 267 86 69 54 61 57 52 48 36 83 98 128 127 140 145 145 143 145 149 149 152 151 152 157 151 156 150 146 141 137 133 131 131 130 130 129 126 127 130 120 123 126 126 127 125 125 124 124
273 266 65 49 29 40 44 42 84 86 114 121 95 81 122 139 145 147 150 153 158 163 161 161 155 156 158 151 146 150 145 142 148 143 140 158 150 138 148 113 125 129 130 130 129 130 131 137 134
282 22 50 24 7 2 10 9 111 156 143 138 123 110 129 145 153 160 163 165 169 170 168 166 161 161 161 152 149 156 160 155 167 145 153 152 132 131 118 119 129 130 132 134 128 134 156 180 143
316 10 19 9 1 338 331 38 156 196 149 153 155 146 150 157 163 170 172 173 172 171 169 169 167 168 163 158 158 157 159 152 158 148 149 142 149 144 142 142 144 145 156 150 146 171 167 144 119
308 3 341 336 341 319 320 332 145 239 54 102 145 150 157 166 172 176 176 174 172 172 170 171 168 170 172 167 161 167 168 166 161 153 173 162 163 156 140 149 147 157 150 145 151 147 136 133 135
292 333 329 329 321 325 294 252 137 107 101 117 137 152 163 171 174 177 176 175 175 175 174 173 173 172 172 171 180 175 176 173 161 159 172 176 173 168 153 149 160 164 147 159 164 150 142 152 157
332 311 303 316 342 174 263 151 168 109 128 136 149 160 167 172 174 174 179 181 182 179 177 176 179 178 177 178 185 181 184 181 181 175 173 190 184 162 169 164 171 169 172 160 166 154 160 172 151
277 274 256 200 322 19 257 190 139 119 142 152 158 163 168 173 178 182 183 183 183 181 179 180 181 181 181 185 189 190 193 188 193 179 177 191 195 170 187 171 182 171 162 161 186 172 176 176 173
243 245 231 128 336 309 269 194 102 142 162 163 165 167 172 177 184 186 184 185 183 181 182 183 185 181 185 189 191 196 200 200 198 194 187 195 198 191 204 190 188 171 183 181 179 199 189 187 188
220 234 233 148 101 295 272 312 113 163 181 174 172 174 176 179 190 188 186 186 185 183 182 184 188 184 185 186 189 202 202 213 212 203 199 198 204 201 212 204 176 190 194 193 200 182 197 193 195
221 237 221 235 49 295 274 281 174 193 203 192 179 178 180 185 190 184 183 185 186 185 184 186 186 183 183 185 191 200 209 214 215 212 204 205 207 205 215 206 193 204 195 199 210 179 201 217 212
292 270 262 17 359 292 283 285 223 201 210 204 194 185 186 190 183 177 181 185 187 185 185 187 187 182 183 187 195 197 205 212 214 213 210 210 213 205 215 222 193 211 204 212 205 199 197 207 202
240 248 232 182 12 294 295 277 206 194 213 215 204 192 191 186 177 176 181 184 191 189 189 188 190 188 190 192 196 201 205 212 211 213 212 215 213 212 208 219 216 207 207 214 218 212 225 207 198
230 250 262 300 283 232 279 233 181 168 188 200 209 201 194 188 182 179 185 188 190 190 191 192 192 192 195 193 192 194 195 212 212 210 208 211 214 218 225 216 227 218 220 210 215 213 219 225 213
226 225 255 261 268 269 295 292 168 185 195 195 199 197 192 187 185 182 185 187 190 190 188 191 189 193 194 194 200 202 205 208 213 214 210 207 214 222 222 222 223 224 228 217 221 213 222 226 229
247 140 231 252 266 272 242 280 127 171 215 195 190 193 188 182 184 183 185 184 186 185 183 185 188 191 193 198 204 209 219 220 218 215 216 220 217 221 225 222 220 221 229 226 234 222 231 225 231
165 183 200 235 251 250 265 280 279 94 351 170 175 180 180 176 175 175 176 173 175 178 179 180 183 190 193 198 205 211 222 223 224 221 220 217 216 216 221 222 218 221 228 224 225 226 225 237 237
206 220 222 222 224 237 128 261 297 38 14 307 215 182 175 171 169 169 173 174 174 176 177 177 180 187 192 199 205 211 220 222 224 224 222 222 219 214 215 220 217 221 224 228 225 222 236 229 228
211 229 247 266 259 204 177 249 330 86 54 272 183 168 168 167 167 169 171 172 174 175 175 177 180 184 191 198 204 209 215 221 222 222 225 220 223 223 215 219 220 223 225 228 222 229 226 227 228
206 228 247 260 269 275 242 244 236 166 171 161 153 160 165 165 164 164 166 169 170 174 176 177 178 183 190 195 196 203 210 219 218 218 220 219 219 218 211 219 223 226 225 229 227 235 231 226 229
252 226 216 238 245 250 233 235 243 177 169 162 166 167 166 166 167 165 165 167 168 169 171 174 177 182 186 190 196 198 206 210 211 212 209 211 217 220 212 216 222 223 225 227 229 231 228 228 229
192 208 224 232 249 262 250 208 107 201 183 186 176 170 170 172 169 166 165 164 165 166 169 172 174 179 183 187 189 195 199 201 204 207 206 207 214 216 217 216 220 223 226 226 225 231 228 228 228
216 216 212 223 223 247 273 230 112 167 184 196 178 164 166 170 166 165 164 164 167 168 169 172 176 180 181 181 183 191 192 194 199 201 205 204 206 213 214 216 219 223 225 222 222 226 225 226 229